Regional Weather Roundup
Issued by NWS Albany, NY

Home | Current Version | Previous Version | Text Only | Print | Product List | Glossary On
Versions: 1 2 3 4 5 6 7 8 9 10 11 12 13 14 15 16 17 18 19 20 21 22 23 24 25 26 27 28 29 30 31 32 33 34 35 36 37 38 39 40 41 42 43 44 45 46 47 48 49 50
000
ASUS41 KALY 021910
RWRALY

NEW YORK STATE HOURLY WEATHER ROUNDUP
NATIONAL WEATHER SERVICE ALBANY NY
300 PM EDT TUE SEP 02 2014

NOTE: "FAIR" INDICATES FEW OR NO CLOUDS BELOW 12,000 FEET WITH NO
SIGNIFICANT WEATHER AND/OR NO OBSTRUCTIONS TO VISIBILITY.

NYZ032-033-038>043-046>054-057>066-NYZ062>081-022000-
EAST


CITY           SKY/WX    TMP DP  RH WIND       PRES   REMARKS
ALBANY         LGT RAIN  77  69  76 SW13      29.83F
GLENS FALLS    MOSUNNY   84  71  65 S9        29.80F
POUGHKEEPSIE   SUNNY     91  70  49 VRB5      29.81F HX  96
NEWBURGH       MOSUNNY   86  70  58 W7        29.85F HX  90
MONTGOMERY     PTSUNNY   88  68  51 SW12      29.83F HX  91
WHITE PLAINS   PTSUNNY   81  70  69 S3        29.85F
ISLIP          CLOUDY    87  71  58 SW15      29.84F HX  93
NEW YORK CITY  PTSUNNY   91  67  44 SW12      29.83F HX  94
CENTRAL PARK   MOSUNNY   92  68  45 VRB3      29.86F HX  96
$$

NYZ005>009-017-018-044>046-055-056-022000-
CENTRAL


CITY           SKY/WX    TMP DP  RH WIND       PRES   REMARKS
FULTON         CLOUDY    80  73  79 CALM      29.80F
SYRACUSE       PTSUNNY   86  69  56 SW9       29.79F HX  90
ROME           SUNNY     84  69  60 SW6       29.81F
ELMIRA         MOSUNNY   84  68  58 SW9       29.83F
BINGHAMTON     MOSUNNY   82  66  58 SW12      29.89F
MONTICELLO     MOSUNNY   84  66  54 SW9       29.91F
$$

NYZ026>034-041>043-022000-
NORTH


CITY           SKY/WX    TMP DP  RH WIND       PRES   REMARKS
WATERTOWN      CLOUDY    81  67  62 W8        29.78F
FORT DRUM      NOT AVBL
MASSENA        MOSUNNY   81  67  62 SW10G22   29.75F
SARANAC LAKE   PTSUNNY   80  61  52 SW12G21   29.82F
PLATTSBURGH    PTSUNNY   87  64  46 VRB6      29.74F
$$

NYZ001>004-010>016-019>021-022000-
WEST


CITY           SKY/WX    TMP DP  RH WIND       PRES   REMARKS
NIAGARA FALLS  CLOUDY    74  67  78 SW13      29.80F
BUFFALO        LGT RAIN  73  68  84 SW12      29.82F
DUNKIRK        RAIN      69  68  96 S10       29.86R FOG
JAMESTOWN      CLOUDY    72  66  83 S7        29.87F
WELLSVILLE     CLOUDY    75  64  68 SW8       29.92F
ROCHESTER      CLOUDY    77  69  76 W7        29.80F
PENN YAN       CLOUDY    82  68  62 SW7       29.83F
$$

             KEY
       WCI = WIND CHILL INDEX
       VSB = VISIBILITY
       HX  = HEAT INDEX
$$



USA.gov is the U.S. government's official web portal to all federal, state and local government web resources and services.